Location: Peebles
(55.6412°N, 3.1714°W)
Time: 10:40:22
(UTC+01:00)

KEPLER-1 (CASE) - Pass Details

Date: 03 July 2022
Orbit: 435 x 454 km, 97.4° (Epoch: 16 August)

Event Time Altitude Azimuth Distance (km) Brightness Sun altitude
Exits shadow 23:16:26 10° 153° (SSE) 1,573 ? -7.4°
Reaches altitude 10° 23:16:27 10° 153° (SSE) 1,563 ? -7.4°
Maximum altitude 23:19:46 63° 72° (ENE) 505 ? -7.6°
Drops below altitude 10° 23:23:08 10° 351° (N) 1,592 ? -7.8°
Sets 23:25:12 0° 348° (NNW) 2,475 ? -7.9°
